Find Starlink 31081

NORAD ID: 58632 Int'l Des: 2023-203 Owner: SPXS Country: US Constellation: starlink operational
LEOCIRCULAR

Current View

Loading 3D Globe...

About Starlink 31081

Starlink 31081 (NORAD 58632) is a starlink constellation satellite (v2 mini) launched Dec 23, 2023 by SPXS of US. It operates in LEO, CIRCULAR orbit with a mass of 730.00 kg.

Upcoming Passes

Passes for default location (London). Set your location on the main map for personalized predictions.

Altitude History

Loading altitude history...

Two-Line Element Set

1 58632U 23203Q 26235.37719379 .00001854 00000-0 76884-4 0 9993
2 58632 43.0026 209.2041 0001680 241.9606 118.1076 15.27585483150246
Epoch: Aug 23, 2026 • Age: 21 hours

Current Status

Altitude 484.0 km
Apogee / Perigee N/A
Velocity 7.62 km/s
Sub-Earth Point -10.36°S, 31.65°W
Launch Date Dec 23, 2023
Age 2.6 years
Type internet

Technical Details

Classification Payload
Mass 730.00 kg
Dry Mass 700.00 kg
Total Mass 730.00 kg
Length 0.30 m
Diameter 4.10 m
Span 29.00 m
Shape Box + pan
Manufacturer SPXS
Bus Type Starlink V2M
Phase Status In Orbit
Owner/State SPXS/US

Most Searched